Volver al catálogo

STARLINK-3791

ActivoComunicacionesVLEO
NORAD 52269·PAYLOAD·🇺🇸 United States

Lanzado Apr 21, 2022 desde Cape Canaveral Space Force Station

Loading…

Próximos Pases (próximas 24 horas)

TLE

ActualizadoSource: CelesTrak SupGP

Época: Sep 14, 2026, 20:58 UTC

1 52269C 22041J   26257.87409722 -.00146670  00000+0 -41958-2 0  2575
2 52269  53.1608 334.2091 0000810  50.7163 356.2003 15.35477420    10

Sigue STARLINK-3791 en tiempo real con AllMySat

Download on the App Store